Torna al catalogo

HULIANWANG DIGUI-104

AttivoComunicazioniLEO
NORAD 66420·PAYLOAD·🇨🇳 China

Lanciato Nov 10, 2025 da Wenchang Space Launch Site

Loading…

Prossimi Passaggi (prossime 24 ore)

TLE

AggiornatoSource: Space-Track

Epoca: Sep 14, 2026, 15:15 UTC

1 66420U 25258J   26257.63552789 -.00000082  00000-0  91446-4 0  9996
2 66420  50.0043 334.4827 0000152  95.6696 264.4194 13.29329344 41625

Traccia HULIANWANG DIGUI-104 in tempo reale con AllMySat

Download on the App Store